Time,TemperatureF,DewpointF,PressureIn,WindDirection,WindDirectionDegrees,WindSpeedMPH,WindSpeedGustMPH,Humidity,HourlyPrecipIn,Conditions,Clouds,dailyrainin,SoftwareType,DateUTC
2013-06-24 00:02:00,71.0,70.0,29.91,South,184,0.0,4.0,96,0.00,,,0.03,,2013-06-24 05:02:00,
2013-06-24 00:12:00,70.0,69.0,29.92,South,184,0.0,1.0,96,0.00,,,0.03,,2013-06-24 05:12:00,
2013-06-24 00:22:00,70.0,69.0,29.92,South,184,1.0,4.0,96,0.00,,,0.03,,2013-06-24 05:22:00,
2013-06-24 00:35:00,70.0,69.0,29.92,South,184,0.0,4.0,96,0.00,,,0.03,,2013-06-24 05:35:00,
2013-06-24 00:46:00,70.0,69.0,29.92,South,184,0.0,4.0,96,0.00,,,0.03,,2013-06-24 05:46:00,
2013-06-24 00:53:00,70.0,69.0,29.92,South,184,1.0,4.0,96,0.00,,,0.03,,2013-06-24 05:53:00,
2013-06-24 01:07:00,70.0,69.0,29.92,South,184,0.0,5.0,96,0.00,,,0.03,,2013-06-24 06:07:00,
2013-06-24 01:13:00,70.0,69.0,29.91,South,184,2.0,5.0,96,0.00,,,0.03,,2013-06-24 06:13:00,
2013-06-24 01:23:00,70.0,69.0,29.91,South,184,1.0,4.0,96,0.00,,,0.03,,2013-06-24 06:23:00,
2013-06-24 01:36:00,70.0,68.0,29.91,South,184,0.0,4.0,95,0.00,,,0.03,,2013-06-24 06:36:00,
2013-06-24 01:44:00,70.0,68.0,29.90,South,184,0.0,4.0,95,0.00,,,0.03,,2013-06-24 06:44:00,
2013-06-24 01:52:00,70.0,68.0,29.90,South,184,3.0,4.0,95,0.00,,,0.03,,2013-06-24 06:52:00,
2013-06-24 02:05:00,70.0,68.0,29.91,South,184,3.0,6.0,94,0.00,,,0.03,,2013-06-24 07:05:00,
2013-06-24 02:29:00,71.0,69.0,29.90,SSW,204,7.0,9.0,92,0.00,,,0.03,,2013-06-24 07:29:00,
2013-06-24 02:46:00,71.0,68.0,29.90,SSW,205,4.0,10.0,89,0.00,,,0.03,,2013-06-24 07:46:00,
2013-06-24 02:54:00,71.0,67.0,29.90,West,261,4.0,9.0,86,0.00,,,0.03,,2013-06-24 07:54:00,
2013-06-24 03:04:00,72.0,67.0,29.90,West,265,1.0,11.0,85,0.00,,,0.03,,2013-06-24 08:04:00,
2013-06-24 03:14:00,72.0,68.0,29.91,SSW,205,8.0,8.0,86,0.00,,,0.03,,2013-06-24 08:14:00,
2013-06-24 03:26:00,71.0,67.0,29.91,SSW,211,6.0,13.0,86,0.00,,,0.03,,2013-06-24 08:26:00,
2013-06-24 03:35:00,71.0,67.0,29.90,SSW,213,2.0,8.0,86,0.00,,,0.03,,2013-06-24 08:35:00,
2013-06-24 03:52:00,71.0,67.0,29.91,SSW,201,3.0,8.0,88,0.00,,,0.03,,2013-06-24 08:52:00,
2013-06-24 04:05:00,71.0,68.0,29.91,SSW,208,2.0,12.0,89,0.00,,,0.03,,2013-06-24 09:05:00,
2013-06-24 04:15:00,71.0,68.0,29.90,SSW,204,2.0,9.0,90,0.00,,,0.03,,2013-06-24 09:15:00,
2013-06-24 04:36:00,71.0,68.0,29.93,WSW,240,5.0,9.0,91,0.00,,,0.03,,2013-06-24 09:36:00,
2013-06-24 04:47:00,71.0,68.0,29.93,WSW,240,5.0,9.0,91,0.00,,,0.03,,2013-06-24 09:47:00,
2013-06-24 04:55:00,69.0,67.0,29.93,WNW,300,0.0,7.0,94,0.34,,,0.37,,2013-06-24 09:55:00,
2013-06-24 05:04:00,69.0,68.0,29.93,NNW,340,0.0,11.0,95,0.37,,,0.40,,2013-06-24 10:04:00,
2013-06-24 05:14:00,69.0,68.0,29.93,NNE,29,0.0,4.0,96,0.41,,,0.44,,2013-06-24 10:14:00,
2013-06-24 05:23:00,69.0,68.0,29.93,NNE,29,0.0,4.0,96,0.41,,,0.44,,2013-06-24 10:23:00,
2013-06-24 05:37:00,69.0,68.0,29.93,NNE,29,0.0,4.0,96,0.41,,,0.44,,2013-06-24 10:37:00,
2013-06-24 05:48:00,69.0,68.0,29.93,SE,142,6.0,9.0,97,0.23,,,0.48,,2013-06-24 10:48:00,
2013-06-24 05:54:00,69.0,68.0,29.93,SE,143,5.0,9.0,98,0.12,,,0.49,,2013-06-24 10:54:00,
2013-06-24 06:03:00,69.0,68.0,29.93,SE,142,6.0,8.0,98,0.10,,,0.50,,2013-06-24 11:03:00,
2013-06-24 06:14:00,69.0,68.0,29.94,SSE,153,0.0,6.0,98,0.06,,,0.50,,2013-06-24 11:14:00,
2013-06-24 06:28:00,69.0,68.0,29.94,SSE,153,0.0,6.0,98,0.06,,,0.50,,2013-06-24 11:28:00,
2013-06-24 06:34:00,69.0,68.0,29.95,SSW,205,0.0,9.0,98,0.05,,,0.53,,2013-06-24 11:34:00,
2013-06-24 06:46:00,69.0,68.0,29.97,SSW,210,8.0,11.0,98,0.09,,,0.57,,2013-06-24 11:46:00,
2013-06-24 06:55:00,69.0,68.0,29.97,SE,141,6.0,11.0,98,0.09,,,0.58,,2013-06-24 11:55:00,
2013-06-24 07:05:00,69.0,68.0,29.97,SE,142,9.0,14.0,98,0.10,,,0.60,,2013-06-24 12:05:00,
2013-06-24 07:16:00,69.0,68.0,29.97,SSW,196,4.0,9.0,98,0.12,,,0.62,,2013-06-24 12:16:00,
2013-06-24 07:23:00,69.0,68.0,29.98,SE,144,0.0,7.0,98,0.11,,,0.63,,2013-06-24 12:23:00,
2013-06-24 07:36:00,68.0,67.0,29.97,SE,130,1.0,6.0,98,0.10,,,0.64,,2013-06-24 12:36:00,
2013-06-24 07:47:00,68.0,67.0,29.97,SSE,166,0.0,9.0,98,0.09,,,0.66,,2013-06-24 12:47:00,
2013-06-24 07:53:00,68.0,67.0,29.97,SSW,207,3.0,8.0,98,0.08,,,0.66,,2013-06-24 12:53:00,
2013-06-24 08:06:00,68.0,67.0,29.98,South,176,11.0,12.0,98,0.06,,,0.67,,2013-06-24 13:06:00,
2013-06-24 08:14:00,68.0,67.0,29.98,SSE,153,5.0,11.0,98,0.06,,,0.68,,2013-06-24 13:14:00,
2013-06-24 08:24:00,68.0,67.0,29.98,SSE,153,5.0,11.0,98,0.06,,,0.68,,2013-06-24 13:24:00,
2013-06-24 08:36:00,68.0,67.0,29.99,SSE,163,0.0,4.0,98,0.07,,,0.71,,2013-06-24 13:36:00,
2013-06-24 08:43:00,68.0,67.0,29.99,SSE,163,0.0,4.0,98,0.07,,,0.71,,2013-06-24 13:43:00,
2013-06-24 08:56:00,67.0,66.0,29.99,SW,225,2.0,6.0,98,0.06,,,0.72,,2013-06-24 13:56:00,
2013-06-24 09:03:00,67.0,66.0,29.99,SW,225,2.0,6.0,98,0.06,,,0.72,,2013-06-24 14:03:00,
2013-06-24 09:24:00,67.0,66.0,29.99,SW,225,2.0,6.0,98,0.06,,,0.72,,2013-06-24 14:24:00,
2013-06-24 09:46:00,67.0,66.0,30.00,SW,215,6.0,9.0,98,0.06,,,0.78,,2013-06-24 14:46:00,
2013-06-24 09:59:00,67.0,66.0,30.00,SW,215,6.0,9.0,98,0.06,,,0.78,,2013-06-24 14:59:00,
2013-06-24 10:05:00,66.0,65.0,29.98,SSW,202,0.0,6.0,98,0.09,,,0.81,,2013-06-24 15:05:00,
2013-06-24 10:27:00,66.0,65.0,29.93,SE,146,11.0,17.0,98,0.08,,,0.83,,2013-06-24 15:27:00,
2013-06-24 10:36:00,66.0,65.0,29.91,SSE,155,9.0,17.0,97,0.08,,,0.85,,2013-06-24 15:36:00,
2013-06-24 10:45:00,67.0,66.0,29.91,SSE,148,14.0,18.0,97,0.09,,,0.86,,2013-06-24 15:45:00,
2013-06-24 10:54:00,67.0,66.0,29.90,SSE,151,10.0,19.0,97,0.08,,,0.87,,2013-06-24 15:54:00,
2013-06-24 11:03:00,68.0,67.0,29.88,SE,141,6.0,16.0,96,0.06,,,0.87,,2013-06-24 16:03:00,
2013-06-24 11:15:00,68.0,67.0,29.92,WSW,237,8.0,13.0,96,0.05,,,0.87,,2013-06-24 16:15:00,
2013-06-24 11:23:00,68.0,67.0,29.92,WSW,243,5.0,13.0,96,0.04,,,0.87,,2013-06-24 16:23:00,
2013-06-24 11:35:00,68.0,67.0,29.92,WSW,243,5.0,13.0,96,0.04,,,0.87,,2013-06-24 16:35:00,
2013-06-24 11:43:00,68.0,67.0,29.92,WSW,243,5.0,13.0,96,0.04,,,0.87,,2013-06-24 16:43:00,
2013-06-24 11:55:00,72.0,70.0,29.91,SSW,208,5.0,8.0,92,0.00,,,0.87,,2013-06-24 16:55:00,
2013-06-24 12:05:00,74.0,71.0,29.90,SSW,204,2.0,6.0,89,0.00,,,0.87,,2013-06-24 17:05:00,
2013-06-24 12:14:00,77.0,71.0,29.90,SSW,205,5.0,6.0,82,0.00,,,0.87,,2013-06-24 17:14:00,
2013-06-24 12:24:00,78.0,72.0,29.90,SW,224,5.0,8.0,82,0.00,,,0.87,,2013-06-24 17:24:00,
2013-06-24 12:35:00,79.0,72.0,29.90,SW,229,6.0,9.0,80,0.00,,,0.87,,2013-06-24 17:35:00,
2013-06-24 12:46:00,80.0,72.0,29.90,SSW,207,3.0,7.0,76,0.00,,,0.87,,2013-06-24 17:46:00,
2013-06-24 12:55:00,79.0,71.0,29.90,SSE,155,0.0,7.0,76,0.00,,,0.87,,2013-06-24 17:55:00,
2013-06-24 13:02:00,80.0,72.0,29.90,SSE,167,2.0,7.0,77,0.00,,,0.87,,2013-06-24 18:02:00,
2013-06-24 13:14:00,81.0,73.0,29.90,SW,214,6.0,7.0,78,0.00,,,0.87,,2013-06-24 18:14:00,
2013-06-24 13:25:00,81.0,74.0,29.90,SSW,204,4.0,11.0,79,0.00,,,0.87,,2013-06-24 18:25:00,
2013-06-24 13:35:00,80.0,72.0,29.91,SSW,194,0.0,10.0,77,0.00,,,0.87,,2013-06-24 18:35:00,
2013-06-24 13:46:00,80.0,72.0,29.93,SW,219,5.0,8.0,76,0.00,,,0.87,,2013-06-24 18:46:00,
2013-06-24 13:53:00,81.0,73.0,29.93,SW,218,7.0,9.0,77,0.00,,,0.87,,2013-06-24 18:53:00,
2013-06-24 14:06:00,82.0,72.0,29.93,WSW,244,5.0,9.0,73,0.00,,,0.87,,2013-06-24 19:06:00,
2013-06-24 14:13:00,82.0,73.0,29.92,SW,223,7.0,9.0,74,0.00,,,0.87,,2013-06-24 19:13:00,
2013-06-24 14:25:00,82.0,73.0,29.92,SW,223,7.0,9.0,74,0.00,,,0.87,,2013-06-24 19:25:00,
2013-06-24 14:36:00,80.0,73.0,29.91,WSW,240,0.0,7.0,79,0.00,,,0.87,,2013-06-24 19:36:00,
2013-06-24 14:45:00,80.0,73.0,29.91,WSW,240,0.0,7.0,79,0.00,,,0.87,,2013-06-24 19:45:00,
2013-06-24 14:54:00,80.0,73.0,29.88,South,188,3.0,8.0,79,0.00,,,0.84,,2013-06-24 19:54:00,
2013-06-24 15:05:00,81.0,73.0,29.88,SE,140,9.0,9.0,78,0.00,,,0.84,,2013-06-24 20:05:00,
2013-06-24 15:12:00,82.0,73.0,29.87,SE,140,7.0,9.0,75,0.00,,,0.84,,2013-06-24 20:12:00,
2013-06-24 15:24:00,82.0,74.0,29.86,SSW,203,3.0,10.0,77,0.00,,,0.84,,2013-06-24 20:24:00,
2013-06-24 15:34:00,83.0,74.0,29.86,SE,140,2.0,9.0,74,0.00,,,0.84,,2013-06-24 20:34:00,
2013-06-24 15:45:00,83.0,74.0,29.86,SSE,161,2.0,9.0,74,0.00,,,0.84,,2013-06-24 20:45:00,
2013-06-24 15:54:00,81.0,72.0,29.87,SW,220,5.0,10.0,74,0.00,,,0.84,,2013-06-24 20:54:00,
2013-06-24 16:04:00,81.0,73.0,29.88,SSW,207,5.0,9.0,76,0.00,,,0.84,,2013-06-24 21:04:00,
2013-06-24 16:13:00,79.0,72.0,29.88,SW,217,4.0,13.0,80,0.00,,,0.84,,2013-06-24 21:13:00,
2013-06-24 16:25:00,79.0,73.0,29.87,SW,218,4.0,5.0,83,0.00,,,0.84,,2013-06-24 21:25:00,
2013-06-24 16:37:00,79.0,73.0,29.87,SW,218,4.0,5.0,83,0.00,,,0.84,,2013-06-24 21:37:00,
2013-06-24 16:46:00,80.0,74.0,29.87,SSW,206,3.0,6.0,82,0.00,,,0.84,,2013-06-24 21:46:00,
2013-06-24 17:04:00,68.0,64.0,29.90,SSW,201,17.0,23.0,87,0.13,,,0.97,,2013-06-24 22:04:00,
2013-06-24 17:15:00,67.0,65.0,29.90,West,261,7.0,19.0,94,0.14,,,0.98,,2013-06-24 22:15:00,
2013-06-24 17:36:00,66.0,65.0,29.88,SW,215,8.0,13.0,96,0.15,,,0.99,,2013-06-24 22:36:00,
2013-06-24 17:46:00,66.0,65.0,29.88,SW,215,8.0,13.0,96,0.15,,,0.99,,2013-06-24 22:46:00,
2013-06-24 17:55:00,66.0,65.0,29.84,SSW,202,2.0,11.0,97,0.03,,,0.99,,2013-06-24 22:55:00,
2013-06-24 18:05:00,66.0,65.0,29.84,SW,221,6.0,8.0,97,0.02,,,0.99,,2013-06-24 23:05:00,
2013-06-24 18:13:00,66.0,65.0,29.84,SW,221,6.0,8.0,97,0.02,,,0.99,,2013-06-24 23:13:00,
2013-06-24 18:27:00,67.0,66.0,29.83,SW,217,0.0,3.0,96,0.01,,,0.99,,2013-06-24 23:27:00,
2013-06-24 18:34:00,67.0,66.0,29.81,SW,217,0.0,1.0,97,0.00,,,0.99,,2013-06-24 23:34:00,
2013-06-24 18:44:00,67.0,66.0,29.80,SW,217,0.0,2.0,97,0.00,,,0.99,,2013-06-24 23:44:00,
2013-06-24 18:55:00,67.0,66.0,29.80,SW,217,0.0,2.0,97,0.00,,,0.99,,2013-06-24 23:55:00,
2013-06-24 19:04:00,67.0,66.0,29.80,SW,217,0.0,1.0,98,0.00,,,0.99,,2013-06-25 00:04:00,
2013-06-24 19:12:00,67.0,66.0,29.80,SW,217,0.0,1.0,98,0.00,,,0.99,,2013-06-25 00:12:00,
2013-06-24 19:24:00,68.0,67.0,29.80,SW,217,0.0,1.0,98,0.00,,,0.99,,2013-06-25 00:24:00,
2013-06-24 19:34:00,68.0,67.0,29.80,SW,217,0.0,1.0,98,0.00,,,0.99,,2013-06-25 00:34:00,
2013-06-24 19:45:00,68.0,67.0,29.82,SW,217,0.0,0.0,97,0.00,,,0.99,,2013-06-25 00:45:00,
2013-06-24 19:55:00,68.0,67.0,29.82,SW,217,0.0,0.0,97,0.00,,,0.99,,2013-06-25 00:55:00,
2013-06-24 20:03:00,68.0,67.0,29.84,SW,217,0.0,3.0,97,0.01,,,1.00,,2013-06-25 01:03:00,
2013-06-24 20:23:00,68.0,67.0,29.84,SW,217,1.0,3.0,97,0.01,,,1.00,,2013-06-25 01:23:00,
2013-06-24 20:36:00,68.0,67.0,29.83,SW,217,1.0,3.0,98,0.01,,,1.00,,2013-06-25 01:36:00,
2013-06-24 20:44:00,68.0,67.0,29.83,SW,217,0.0,3.0,98,0.01,,,1.00,,2013-06-25 01:44:00,
2013-06-24 20:55:00,67.0,66.0,29.82,SW,217,0.0,3.0,98,0.01,,,1.00,,2013-06-25 01:55:00,
2013-06-24 21:05:00,67.0,66.0,29.82,SW,217,0.0,3.0,98,0.01,,,1.00,,2013-06-25 02:05:00,
2013-06-24 21:25:00,67.0,66.0,29.82,SW,217,0.0,0.0,98,0.00,,,1.00,,2013-06-25 02:25:00,
2013-06-24 21:36:00,67.0,66.0,29.83,SW,217,0.0,0.0,98,0.00,,,1.00,,2013-06-25 02:36:00,
2013-06-24 21:45:00,67.0,66.0,29.84,SW,217,0.0,1.0,98,0.00,,,1.00,,2013-06-25 02:45:00,
2013-06-24 21:56:00,67.0,67.0,29.84,SW,217,0.0,2.0,99,0.00,,,1.00,,2013-06-25 02:56:00,
2013-06-24 22:06:00,67.0,66.0,29.85,SW,217,0.0,1.0,98,0.00,,,1.00,,2013-06-25 03:06:00,
2013-06-24 22:14:00,67.0,67.0,29.85,SW,217,1.0,3.0,99,0.00,,,1.00,,2013-06-25 03:14:00,
2013-06-24 23:02:00,67.0,67.0,29.85,SW,217,0.0,3.0,99,0.00,,,1.00,,2013-06-25 04:02:00,
2013-06-24 23:11:00,67.0,67.0,29.86,SW,217,0.0,1.0,99,0.00,,,1.00,,2013-06-25 04:11:00,
2013-06-24 23:22:00,67.0,67.0,29.86,SW,217,0.0,0.0,99,0.00,,,1.00,,2013-06-25 04:22:00,
2013-06-24 23:34:00,67.0,67.0,29.86,SW,217,0.0,0.0,99,0.00,,,1.00,,2013-06-25 04:34:00,
2013-06-24 23:43:00,67.0,66.0,29.85,SW,217,0.0,0.0,98,0.00,,,1.00,,2013-06-25 04:43:00,
2013-06-24 23:52:00,67.0,67.0,29.85,SW,217,0.0,0.0,99,0.00,,,1.00,,2013-06-25 04:52:00,